Flag for United Kingdom Weather past 2 weeks in Canterbury, England, United Kingdom

Now
63 °F

Mild.


Feels Like: 63 °F
Forecast: 46 / 57 °F
Wind: 12 mph from Southwest

Location: Manston

Current Time: May 22, 2015 at 5:50:10 PM

Latest Report: May 22, 2015 at 5:00 PM


Visibility: 17 mi

Pressure: 30.23 "Hg

Humidity: 72%

Dew point: 53 °F

Location of CanterburyLocation

Historic Weather in Canterbury — Graph

°F

Canterbury temperature yesterday

Maximum temperature yesterday: 63 °F (at 3:00 PM)
Minimum temperature yesterday: 43 °F (at 4:00 AM)
Average temperature yesterday: 53 °F

Past Weeks' High & Low Weather Summary

 TemperatureHumidityPressure
High71 °F (May 11, 2:00 PM)96% (May 10, 8:00 AM)30.34 "Hg (May 10, 8:00 AM)
Low41 °F (May 20, 2:00 AM)41% (May 13, 3:00 PM)29.62 "Hg (May 18, 4:00 PM)
Average53 °F75%30.06 "Hg
* Reported May 7 4:00 PM — May 22 4:00 PM, Canterbury, Weather by CustomWeather, © 2015

Note: Actual official high and low records may vary slightly from our data, if they occured in-between our weather recording intervals... More about our weather records

Advertising

Canterbury weather history for previous 24 hours

 ConditionsComfort  
Time TempWeatherWind HumidityBarometerVisibility
4:00 PM
Fri, May 22
65 °FMild.13 mph68%30.24 "Hg9 mi
3:00 PM64 °FMild.6 mph60%30.24 "Hg15 mi
2:00 PM64 °FMild.12 mph65%30.25 "Hg17 mi
1:00 PM63 °FMild.7 mph55%30.27 "Hg12 mi
12:00 PM61 °FRefreshingly cool.8 mph60%30.29 "Hg19 mi
11:00 AM60 °FCool.8 mph62%30.30 "Hg15 mi
10:00 AM58 °FCool.8 mph66%30.30 "Hg11 mi
9:00 AM55 °FCool.3 mph75%30.31 "Hg11 mi
8:00 AM53 °FCool.6 mph78%30.32 "Hg9 mi
7:00 AM49 °FCool.6 mph84%30.31 "Hg7 mi
6:00 AM47 °FCool.7 mph87%30.31 "Hg8 mi
5:00 AM46 °FCool.8 mph88%30.31 "Hg8 mi
4:00 AM47 °FCool.7 mph87%30.31 "Hg7 mi
3:00 AM50 °FCool.8 mph82%30.32 "Hg9 mi
2:00 AM50 °FCool.9 mph82%30.33 "Hg9 mi
1:00 AM51 °FCool.13 mph79%30.32 "Hg9 mi
12:00 AM51 °FCool.12 mph76%30.33 "Hg10 mi
11:00 PM
Thu, May 21
52 °FCool.12 mph72%30.33 "Hg11 mi
10:00 PM54 °FCool.10 mph69%30.33 "Hg12 mi
9:00 PM56 °FCool.9 mph71%30.31 "Hg11 mi
8:00 PM57 °FCool.12 mph71%30.30 "Hg11 mi
7:00 PM60 °FCool.14 mph64%30.30 "Hg9 mi
6:00 PM61 °FCool.14 mph64%30.30 "Hg17 mi
5:00 PM62 °FMild.16 mph57%30.30 "Hg22 mi
Weather by CustomWeather, © 2015

See weather overviewHow to use our weather pages